Location: Mt. Graham
(32.7020°N, 109.8880°W)
Time: 19:09:04
(UTC-07:00)

N. Korean satellite - Visible Passes

Search period start: 23 February 2018 00:00
Search period end: 05 March 2018 00:00
Orbit: 459 x 514 km, 97.2° (Epoch: 23 February)

Date Brightness Start Highest point End Pass type
(mag) Time Alt. Az. Time Alt. Az. Time Alt. Az.
23 Feb 9.8 19:07:23 10° SW 19:09:42 17° W 19:12:03 10° NW visible
24 Feb 8.3 18:42:40 10° SSW 18:45:52 37° W 18:49:07 10° NNW visible
25 Feb 9.7 06:14:15 10° NE 06:17:11 22° E 06:20:07 10° SSE visible
26 Feb 10.7 05:52:29 10° E 05:53:19 11° E 05:54:09 10° ESE visible
27 Feb 9.8 19:05:44 10° SW 19:08:09 18° W 19:10:36 10° NW visible
28 Feb 8.2 18:41:04 10° S 18:44:18 39° W 18:47:36 10° NNW visible
01 Mar 9.8 06:12:45 10° NE 06:15:40 21° E 06:18:33 10° SSE visible
02 Mar 10.8 05:51:15 10° E 05:51:46 10° E 05:52:18 10° E visible
03 Mar 9.7 19:04:02 10° SW 19:06:33 19° W 19:09:06 10° NW visible
04 Mar 8.1 18:39:24 10° S 18:42:42 41° W 18:46:03 10° NNW visible
